Regional Weather Roundup
Issued by NWS

Home | Current Version | Previous Version | Graphics & Text | Print | Product List | Glossary On
Versions: 1 2 3 4 5 6 7 8 9 10 11 12 13 14 15 16 17 18 19 20 21 22 23 24 25 26 27 28 29 30 31 32 33 34 35 36 37 38 39 40 41 42 43 44 45 46 47 48 49 50
000
ASUS43 KFSD 090702
RWRSD

WEATHER ROUNDUP FOR SOUTH DAKOTA
NATIONAL WEATHER SERVICE SIOUX FALLS SD
100 AM CST FRI DEC 09 2016

NOTE: "FAIR" INDICATES FEW OR NO CLOUDS BELOW 12,000 FEET WITH NO
SIGNIFICANT WEATHER AND/OR OBSTRUCTIONS TO VISIBILITY.


SDZ001>005-009-010-012>017-090800-
NORTHWEST AND NORTH CENTRAL SOUTH DAKOTA

CITY           SKY/WX    TMP DP  RH WIND       PRES   REMARKS
BUFFALO          N/A     -9 -13  83 NE5       30.32S WCI -20
FAITH            N/A     -9 -10  96 E5        30.47S WCI -20
MOBRIDGE       CLOUDY    -5 -10  79 N6        30.54F WCI -18
$$

SDZ012>016-024>037-041>051-057-063-072>074-090800-
SOUTHWEST AND SOUTH CENTRAL SOUTH DAKOTA

CITY           SKY/WX    TMP DP  RH WIND       PRES   REMARKS
RAPID CTY ARPT CLOUDY     2  -5  72 E3        30.36F
PIERRE         CLOUDY     3  -3  76 E6        30.56F WCI  -8
CUSTER         CLOUDY     1  -5  75 CALM      30.11F
ELLSWORTH AFB  CLOUDY     1  -5  74 E6        30.34F WCI -10
PHILIP         CLOUDY    -9 -13  83 CALM      30.51F
PINE RIDGE     CLOUDY     7  -2  66 SE6       30.33F WCI  -3
SPEARFISH      FAIR      -8 -13  77 CALM      30.26F
WINNER         FAIR      -2  -6  83 CALM      30.55F
$$

SDZ004>011-016>023-039-040-090800-
NORTHEAST SOUTH DAKOTA

CITY           SKY/WX    TMP DP  RH WIND       PRES   REMARKS
ABERDEEN       CLEAR     -6 -12  75 SW3       30.62F
WATERTOWN      CLEAR     -2  -6  83 NW9       30.54S WCI -18
SISSETON         N/A      0  -6  76 NW8       30.59S WCI -14
$$

SDZ017-020-022-023-036>040-048>070-090800-
SOUTHEAST SOUTH DAKOTA

CITY           SKY/WX    TMP DP  RH WIND       PRES   REMARKS
SIOUX FALLS    CLEAR      3  -1  83 W6        30.59S WCI  -8
HURON          CLEAR     -3  -6  87 NW6       30.63S WCI -15
CHAMBERLAIN    FLURRIES   6   2  86 N5        30.60F WCI  -3
MITCHELL       CLEAR      0  -4  83 W6        30.64F WCI -12
YANKTON        CLEAR      3  -2  78 W6        30.63S WCI  -8
$$

ABBREVIATIONS USED IN REMARKS
   TC - TEMPERATURE IN CELSIUS
  WCI - WIND CHILL INDEX
   HX - HEAT INDEX
  VSB - VISIBILITY





USA.gov is the U.S. government's official web portal to all federal, state and local government web resources and services.